Wind_Speed
20 18 17 16 14 14 13 11 11 11 11 11 11 13 13 12 12 11 11 14 16 15 14 14 14 15 16 17 18 18 18 18 18 18 19 19 19 20 21 20 21 20 20
20 18 17 16 14 14 13 12 13 12 11 12 13 13 13 11 10 11 11 12 14 16 16 15 15 17 17 17 18 18 18 17 18 18 18 19 20 21 21 22 22 20 20
20 19 17 16 15 14 14 13 13 12 13 12 13 14 13 11 10 10 8 8 11 12 15 15 17 16 16 17 17 17 17 16 17 17 17 17 18 19 20 21 22 22 22
21 19 18 17 16 15 15 15 15 14 14 13 13 12 11 10 10 8 8 7 7 8 11 14 16 18 18 17 19 19 18 17 17 18 19 19 19 19 20 21 21 22 22
23 21 20 19 18 17 16 16 15 15 15 14 13 12 11 10 9 8 8 8 8 7 6 10 13 17 17 18 18 17 18 17 17 18 19 19 20 20 21 21 21 21 23
26 23 21 20 20 19 17 17 18 17 17 16 15 13 11 8 7 7 6 7 7 8 8 8 5 9 14 16 17 18 17 17 18 18 19 20 20 21 21 21 23 22 21
28 27 24 22 21 21 20 21 20 20 19 19 19 15 11 7 6 6 5 5 6 7 8 8 7 6 8 14 14 15 15 18 17 18 18 19 20 21 21 22 23 23 22
30 28 26 25 24 22 23 23 24 22 20 23 15 15 6 5 6 5 5 6 6 5 7 8 8 6 6 6 10 16 17 17 17 17 19 20 19 19 20 21 22 22 23
31 30 29 28 30 25 26 26 25 22 23 21 18 7 4 4 12 9 8 7 7 5 6 6 7 6 6 5 6 12 15 15 16 17 18 19 19 19 20 20 20 21 22
30 29 29 28 30 29 27 28 27 21 19 20 10 10 8 2 5 6 11 7 7 7 6 6 6 6 6 5 9 11 12 14 15 17 18 17 18 19 20 20 20 21 21
29 27 27 25 24 24 27 27 26 23 21 19 13 12 10 7 9 5 8 13 10 7 6 5 5 5 5 6 6 9 10 11 13 13 15 17 18 19 19 19 20 21 22
29 28 26 24 22 21 24 23 21 20 19 14 15 14 11 8 9 9 6 15 14 11 8 6 5 5 5 4 5 5 9 11 12 13 15 16 17 18 18 18 19 20 21
30 32 28 26 25 23 22 21 20 18 17 17 14 14 12 11 8 12 10 14 12 13 8 6 4 4 4 5 4 5 8 8 10 13 14 15 16 17 17 18 19 20 20
30 29 31 25 24 24 26 22 19 17 17 15 14 11 10 10 8 10 12 14 9 11 11 9 5 4 3 4 5 6 5 6 10 12 12 14 14 16 17 18 19 19 20
29 30 30 28 27 25 26 26 21 18 18 16 14 12 11 10 10 8 7 13 10 6 9 9 7 4 4 4 2 5 2 4 11 9 12 12 13 15 16 18 19 19 19
31 34 31 32 30 27 26 26 23 23 21 18 15 15 14 13 13 11 10 9 6 4 5 13 7 8 5 3 4 5 2 4 8 9 9 11 12 14 14 17 18 19 20
31 37 35 34 30 28 25 22 22 24 22 19 17 19 16 14 12 11 10 9 8 6 12 10 10 9 6 4 3 3 2 4 5 9 10 10 11 13 14 16 18 20 20
28 29 39 36 32 27 23 26 29 29 24 23 23 21 19 16 14 12 11 10 9 6 13 14 12 9 7 5 3 3 2 2 3 9 8 12 9 11 14 15 17 19 20
33 32 33 38 37 34 34 30 26 23 29 28 26 25 23 20 18 15 14 12 11 10 10 14 12 9 8 5 4 4 3 3 2 8 8 9 11 11 11 14 16 18 19
37 36 38 37 37 38 36 30 26 28 24 25 24 24 22 21 21 22 20 18 15 13 12 13 12 10 8 4 3 3 7 4 2 6 3 3 4 5 7 14 16 17 18
40 41 39 36 36 33 30 30 30 26 25 23 22 21 20 19 19 19 20 18 20 15 14 14 11 10 7 7 4 3 4 2 6 3 5 1 4 2 5 10 15 15 17
40 38 36 38 34 29 32 32 33 30 27 27 25 23 22 24 24 22 20 19 16 15 14 14 12 9 7 6 3 3 2 2 7 3 4 1 4 4 4 3 12 17 15
36 39 38 35 32 25 31 34 35 34 31 30 30 29 26 26 28 26 24 22 22 20 18 16 16 11 9 7 5 4 3 1 1 3 6 5 4 4 3 3 11 14 17
31 31 34 36 34 28 32 30 32 28 26 27 26 23 20 22 23 25 22 20 17 16 17 17 17 13 9 8 6 5 4 3 4 4 7 2 4 6 4 3 7 11 15
39 34 31 27 32 28 36 35 30 22 23 24 23 20 19 19 21 22 21 19 17 15 14 15 16 14 10 8 8 4 4 3 4 3 3 1 3 8 3 3 8 7 13
24 29 37 40 34 33 36 37 33 24 22 22 23 21 21 20 25 25 19 21 20 18 18 16 14 12 9 7 8 7 5 5 3 6 1 1 4 6 3 4 8 5 12
Wind_Direction
177 175 175 176 176 175 170 161 149 141 129 121 115 112 109 110 113 109 95 83 79 70 65 61 57 52 50 51 43 34 27 24 22 22 22 19 15 11 9 5 6 5 0
179 178 175 176 176 173 168 163 156 149 138 131 122 116 113 114 120 119 108 88 81 76 72 65 63 60 57 50 42 36 33 31 27 22 19 16 12 8 4 1 359 357 359
179 177 175 175 175 171 165 159 156 151 144 136 128 119 118 122 123 127 128 124 85 69 77 73 69 62 58 51 41 35 35 33 31 28 23 19 12 8 2 357 353 351 353
178 175 175 176 173 168 164 160 160 158 151 145 136 129 127 126 121 121 120 123 115 105 75 75 75 67 57 51 45 40 39 37 35 31 26 22 18 13 9 6 359 356 351
177 177 177 175 170 170 171 168 166 164 156 149 138 130 127 126 128 125 123 111 103 97 97 68 59 64 61 51 45 44 41 38 35 31 28 23 19 18 13 9 2 359 356
177 178 178 176 173 174 171 172 168 165 160 151 139 130 127 134 134 140 137 118 102 85 78 81 64 60 55 58 45 38 34 32 31 30 29 25 21 17 13 9 6 6 358
179 178 178 178 176 177 175 171 163 161 157 151 132 128 121 128 146 152 149 125 104 90 83 79 78 79 65 60 47 40 37 33 33 30 28 26 21 15 12 9 6 2 1
182 180 177 178 178 172 170 172 170 162 161 165 155 142 141 146 169 172 159 148 140 123 92 79 78 73 65 48 46 36 38 37 36 31 29 26 22 18 14 11 6 3 1
184 182 179 176 175 174 174 174 175 176 167 184 172 177 139 185 156 179 185 172 160 148 121 103 90 83 83 69 43 35 30 33 38 36 34 30 20 20 17 13 10 8 2
187 185 184 179 176 173 174 173 176 180 176 181 193 197 155 113 206 165 180 175 173 168 140 117 112 102 92 76 63 50 40 35 32 37 34 26 22 20 17 14 12 12 6
189 186 185 182 180 179 174 173 174 180 178 184 187 177 183 216 231 204 161 173 185 170 143 131 113 98 96 91 69 56 44 44 35 39 32 23 24 17 11 6 6 11 6
185 185 185 185 183 184 176 174 176 179 174 180 192 164 174 182 188 225 169 166 175 168 160 141 115 109 98 90 68 54 16 38 33 31 40 29 24 17 11 8 7 9 9
186 181 182 184 180 179 175 169 172 179 172 179 181 165 185 207 201 203 188 165 162 154 162 145 127 114 111 99 54 96 19 40 50 32 38 33 23 19 14 11 10 10 10
183 183 176 181 176 174 171 160 165 166 169 168 169 164 180 190 181 190 185 166 156 171 164 147 143 109 104 114 103 79 44 27 27 33 41 36 25 19 15 14 12 11 12
182 178 174 172 167 169 166 155 159 159 157 157 153 161 177 174 179 182 185 180 180 163 185 177 152 145 133 114 154 110 129 39 19 28 47 38 27 23 20 16 13 13 12
176 173 169 164 166 170 168 155 155 159 152 148 152 179 180 175 170 167 172 180 193 250 131 141 135 140 132 119 61 96 75 91 21 13 52 42 35 28 25 19 15 13 13
173 168 162 159 164 169 171 152 161 152 150 159 167 186 179 172 169 164 166 162 158 172 131 122 146 143 116 127 92 99 77 152 36 15 48 52 40 34 25 22 17 14 13
171 169 160 157 160 164 165 166 161 161 161 171 180 179 172 171 165 170 164 161 155 154 149 152 155 147 149 143 122 121 159 161 25 3 39 37 34 38 27 21 19 14 12
169 167 165 164 167 170 172 174 175 172 179 179 178 177 171 170 164 167 160 155 146 147 146 154 152 152 147 123 153 181 159 156 64 353 13 20 9 28 33 22 18 15 13
176 177 177 174 176 181 182 183 182 176 179 176 178 176 167 170 168 168 160 154 149 145 152 151 150 151 157 127 171 190 188 138 149 355 296 19 340 355 47 27 16 15 14
187 185 181 181 183 192 185 184 182 178 174 173 173 169 170 171 169 167 158 154 148 149 157 151 157 153 144 163 174 217 233 199 144 354 347 36 4 289 343 5 15 11 12
188 185 181 184 185 183 184 183 181 178 172 170 172 167 166 159 162 158 163 151 157 162 161 161 162 133 137 159 162 196 142 214 162 34 19 169 17 345 342 346 7 10 5
184 186 184 181 182 184 190 182 186 179 173 172 168 164 156 163 164 164 160 161 161 158 159 157 140 137 157 169 165 194 101 137 87 351 8 157 49 348 317 298 355 3 3
186 185 183 180 176 181 181 179 183 168 165 166 166 166 162 161 165 161 149 146 144 144 152 151 147 144 158 162 170 156 148 188 145 137 16 259 18 330 301 256 348 354 359
186 188 185 177 171 168 171 175 173 170 165 161 163 165 168 164 167 155 147 144 138 129 124 134 147 150 147 167 175 169 208 216 191 170 357 315 354 328 274 228 333 341 352
191 183 177 180 176 166 175 173 168 164 160 158 163 164 178 174 173 162 159 159 147 150 142 144 134 132 129 158 154 130 201 216 191 190 285 343 343 355 311 166 334 340 347
Height
797 800 803 807 811 813 816 819 821 824 825 827 828 828 830 833 836 838 840 840 840 840 841 841 840 840 839 839 838 837 837 836 835 834 832 831 829 828 826 824 820 818 817
794 797 801 805 809 812 815 817 819 822 825 826 828 829 831 834 837 839 841 841 840 840 840 842 841 839 839 839 838 838 836 835 835 834 833 832 831 829 828 827 823 820 816
790 794 799 803 807 810 813 816 819 822 824 826 829 829 832 836 838 839 840 841 840 841 841 843 841 840 840 839 839 839 838 837 836 835 835 832 832 830 828 827 826 822 819
786 791 795 800 805 808 812 814 817 821 824 826 827 829 832 835 838 841 841 842 843 842 842 842 841 841 842 842 841 841 840 840 838 837 836 835 833 831 829 828 825 823 819
781 786 791 796 800 805 809 811 815 819 823 826 827 830 833 836 838 841 843 843 843 843 843 842 840 841 843 843 843 843 841 840 838 836 835 835 834 832 830 828 827 824 821
775 781 787 791 796 800 804 808 811 814 819 822 826 830 833 837 839 841 844 843 843 844 844 844 844 842 842 844 845 845 844 843 840 839 836 836 836 834 831 828 828 825 821
770 775 780 786 791 794 798 803 809 813 816 820 823 830 833 837 840 841 843 843 843 843 843 843 844 846 844 844 845 845 844 842 841 840 838 836 835 835 832 829 828 827 821
765 770 773 779 785 789 793 800 803 808 813 815 816 823 829 838 839 841 843 842 843 843 842 843 844 846 847 849 848 846 844 844 841 841 838 837 836 835 833 831 829 826 822
759 763 767 771 776 783 787 792 800 803 804 811 811 813 816 819 834 839 841 842 842 843 842 842 842 845 846 847 846 845 846 846 841 839 837 837 840 836 834 833 831 826 825
755 760 763 768 771 774 781 785 792 801 804 806 809 809 808 817 823 830 835 839 842 844 843 842 843 843 844 846 843 843 844 847 846 841 838 840 839 837 836 835 832 827 825
752 756 762 767 770 775 774 778 784 791 796 803 806 807 808 814 815 814 824 836 840 843 843 845 843 844 846 845 845 843 844 843 843 838 840 842 838 838 838 837 833 827 825
747 752 758 763 769 774 774 778 785 788 792 799 804 802 807 812 812 813 813 827 832 838 841 842 844 844 845 845 843 843 846 844 848 843 837 840 840 839 840 837 834 829 824
741 742 751 758 762 769 775 775 782 788 790 797 802 799 806 810 809 812 812 819 825 834 838 840 843 844 845 845 845 846 844 843 840 844 841 840 841 841 840 837 834 830 825
732 741 744 754 759 766 767 771 779 785 790 795 798 800 807 811 811 813 812 817 822 831 834 837 842 843 846 844 844 843 842 841 845 844 842 841 842 841 840 838 835 831 827
729 736 739 747 752 763 767 764 774 781 787 792 795 801 808 809 812 814 815 815 816 819 828 836 838 841 845 846 843 843 844 838 843 842 842 843 843 842 840 839 836 832 829
722 729 736 739 749 757 764 763 769 776 781 786 792 803 806 807 809 811 814 815 814 812 817 830 835 839 842 846 846 845 846 846 843 844 840 843 843 843 841 839 837 833 830
718 721 727 732 744 753 761 759 770 773 777 785 790 799 803 806 809 811 813 814 813 815 817 828 835 836 841 843 845 845 848 848 841 843 840 842 843 843 842 839 837 834 831
720 726 719 725 739 748 755 760 761 764 770 780 789 794 797 802 805 811 813 814 814 816 819 825 832 833 837 839 842 844 849 848 848 845 841 842 844 843 843 840 837 835 832
718 720 726 721 732 742 748 756 759 758 771 776 784 788 790 795 800 806 809 813 814 817 819 826 829 831 836 836 840 842 842 843 846 847 843 840 844 843 843 841 838 835 832
713 721 723 724 728 737 741 745 750 761 772 777 781 783 786 792 795 800 803 808 811 815 820 822 827 830 833 836 841 841 842 839 844 848 845 842 843 843 843 841 839 836 833
711 715 720 722 726 734 738 742 752 763 768 776 779 781 786 791 794 797 801 804 807 813 818 819 826 828 831 835 840 842 841 841 839 844 844 841 843 843 843 841 839 836 833
704 710 710 717 725 730 735 744 751 760 766 770 781 783 785 789 790 798 801 805 806 814 816 817 821 824 832 835 840 842 838 838 838 842 840 840 841 842 842 841 839 836 834
699 705 710 717 724 733 738 743 750 755 761 771 777 782 784 787 790 794 798 802 808 807 812 815 819 827 834 836 838 841 838 839 839 841 839 837 839 840 840 840 838 836 833
701 705 708 712 718 728 736 746 753 756 762 767 774 780 785 790 792 793 800 807 810 812 813 816 816 823 829 835 837 837 838 840 838 840 838 836 838 839 837 837 836 835 833
690 699 708 714 716 723 729 738 753 765 767 766 770 779 787 791 795 796 800 810 812 813 816 819 817 820 825 833 835 834 840 838 836 838 837 837 836 837 835 835 835 833 832
691 695 699 704 714 721 728 736 745 758 767 769 772 775 784 790 797 799 802 808 810 815 814 822 820 821 825 832 831 831 836 835 835 835 836 836 836 835 833 832 832 831 830